Location: Boca do Mato
(22.9085°S, 43.2930°W)
Time: 22:39:31
(UTC+00:00)

ATLAS 5 CENTAUR R/B - Pass Details

Date: 14 July 2020
Orbit: 534 x 1124 km, 63.4° (Epoch: 06 August)

Event Time Altitude Azimuth Distance (km) Brightness Sun altitude
Rises 08:44:06 0° 327° (NNW) 3,908 5.5 -11.5°
Reaches altitude 10° 08:46:47 10° 324° (NW) 2,981 4.9 -10.9°
Maximum altitude 08:53:59 66° 243° (WSW) 1,215 2.8 -9.3°
Drops below altitude 10° 09:01:01 10° 161° (SSE) 2,910 5.0 -7.8°
Sets 09:03:37 0° 158° (SSE) 3,810 5.6 -7.3°
